Location: Archamps
(46.1365°N, 6.1329°E)
Time: 20:59:48
(UTC+00:00)

CZ-6A DEB - Visible Passes

Search period start: 21 February 2024 00:00
Search period end: 02 March 2024 00:00
Orbit: 824 x 885 km, 98.8° (Epoch: 21 February)

Date Brightness Start Highest point End Pass type
(mag) Time Alt. Az. Time Alt. Az. Time Alt. Az.
21 Feb ? 05:05:10 10° NE 05:09:56 30° E 05:14:37 10° SSE visible
21 Feb ? 18:17:06 10° SW 18:20:59 19° W 18:24:51 10° NW visible
22 Feb ? 04:54:42 10° NE 04:59:06 25° E 05:03:27 10° SSE visible
22 Feb ? 18:05:46 10° SW 18:10:08 23° W 18:14:31 10° NW visible
23 Feb ? 04:44:20 10° NE 04:48:16 20° E 04:52:09 10° SE visible
23 Feb ? 17:54:33 10° SSW 17:59:19 28° W 18:04:04 10° NW visible
24 Feb ? 04:34:06 10° NE 04:37:24 16° E 04:40:40 10° SE visible
24 Feb ? 17:43:27 10° SSW 17:48:31 34° W 17:53:33 10° NNW visible
25 Feb ? 04:24:07 10° ENE 04:26:31 13° E 04:28:54 10° ESE visible
26 Feb ? 05:51:53 10° NNE 05:57:20 74° ESE 06:02:42 10° S visible
27 Feb ? 05:41:12 10° NNE 05:46:34 60° ESE 05:51:52 10° S visible
28 Feb ? 05:30:33 10° NNE 05:35:48 49° E 05:40:58 10° S visible
28 Feb ? 18:45:48 10° W 18:47:06 11° W 18:48:23 10° WNW visible
29 Feb ? 05:19:56 10° NNE 05:25:00 40° E 05:30:00 10° SSE visible
29 Feb ? 18:33:27 10° WSW 18:36:11 14° W 18:38:54 10° WNW visible
01 Mar ? 05:09:21 10° NNE 05:14:11 32° E 05:18:56 10° SSE visible
01 Mar ? 18:21:46 10° SW 18:25:18 17° W 18:28:50 10° NW visible
